WZZ773 EPWA-EYVI

Flight info

Callsign WZZ773
Flight time 0h 38m
Altitude 31000
Route BAMSO Z182 ASLUX Z460 XESNA M857 BULEP DCT OFEDE DCT LIZUP DCT DIMTA
Aircraft A320/M-SDE3FGHIRWY/LB1

Departure

Time 2026-05-06 21:30
Airport Warsaw Chopin Airport (EPWA)

Arrival

Time 2026-05-06 22:09
Airport Vilnius International Airport (EYVI)
Time Latitude Longitude Altitude Speed Heading
2026-05-06 20:44 52.17096 20.97076 333 ft 0 kts 74°
2026-05-06 21:20 52.17091 20.97049 332 ft 4 kts 76°
2026-05-06 21:20 52.17087 20.97020 333 ft 4 kts 72°
2026-05-06 21:20 52.17073 20.96967 332 ft 4 kts 71°
2026-05-06 21:20 52.17066 20.96926 333 ft 4 kts 84°
2026-05-06 21:21 52.17065 20.96907 333 ft 0 kts 85°
2026-05-06 21:23 52.17063 20.96911 333 ft 1 kts 106°
2026-05-06 21:23 52.17032 20.96952 333 ft 10 kts 143°
2026-05-06 21:23 52.16939 20.97026 334 ft 19 kts 155°
2026-05-06 21:23 52.16800 20.97155 335 ft 27 kts 148°
2026-05-06 21:24 52.16668 20.97272 334 ft 18 kts 152°
2026-05-06 21:24 52.16593 20.97338 333 ft 16 kts 148°
2026-05-06 21:24 52.16586 20.97346 332 ft 1 kts 145°
2026-05-06 21:24 52.16548 20.97356 332 ft 10 kts 194°
2026-05-06 21:25 52.16515 20.97239 331 ft 12 kts 261°
2026-05-06 21:25 52.16492 20.97085 333 ft 8 kts 214°
2026-05-06 21:25 52.16472 20.97097 336 ft 5 kts 128°
2026-05-06 21:25 52.16435 20.97191 335 ft 15 kts 120°
2026-05-06 21:26 52.16335 20.97321 335 ft 22 kts 151°
2026-05-06 21:26 52.16174 20.97463 334 ft 30 kts 153°
2026-05-06 21:26 52.15888 20.97710 335 ft 40 kts 151°
2026-05-06 21:26 52.15718 20.97859 335 ft 44 kts 152°
2026-05-06 21:27 52.15426 20.98113 334 ft 43 kts 152°
2026-05-06 21:27 52.15222 20.98289 333 ft 37 kts 152°
2026-05-06 21:27 52.15057 20.98370 337 ft 17 kts 216°
2026-05-06 21:27 52.15014 20.98261 336 ft 0 kts 244°
2026-05-06 21:28 52.15012 20.98257 336 ft 2 kts 244°
2026-05-06 21:28 52.14999 20.98188 336 ft 10 kts 254°
2026-05-06 21:28 52.15036 20.98057 336 ft 18 kts 333°
2026-05-06 21:28 52.15170 20.97946 337 ft 25 kts 333°
2026-05-06 21:29 52.15349 20.97788 339 ft 33 kts 331°
2026-05-06 21:29 52.15505 20.97649 338 ft 0 kts 333°
2026-05-06 21:30 52.15752 20.97441 337 ft 87 kts 333°
2026-05-06 21:30 52.16524 20.96777 352 ft 160 kts 332°
2026-05-06 21:30 52.17608 20.95814 792 ft 189 kts 331°
2026-05-06 21:30 52.18838 20.94714 1523 ft 214 kts 329°
2026-05-06 21:31 52.20243 20.93546 2328 ft 240 kts 332°
2026-05-06 21:31 52.21794 20.92325 2923 ft 259 kts 332°
2026-05-06 21:31 52.23446 20.91048 3767 ft 267 kts 333°
2026-05-06 21:31 52.25273 20.90263 4609 ft 280 kts 356°
2026-05-06 21:32 52.27210 20.90855 5451 ft 291 kts 24°
2026-05-06 21:32 52.29633 20.95955 7101 ft 296 kts 84°
2026-05-06 21:32 52.29817 20.99303 7976 ft 297 kts 90°
2026-05-06 21:33 52.29955 21.02698 8848 ft 301 kts 90°
2026-05-06 21:33 52.30094 21.06141 9707 ft 306 kts 90°
2026-05-06 21:33 52.30241 21.09667 10274 ft 320 kts 90°
2026-05-06 21:33 52.30400 21.13438 10547 ft 344 kts 90°
2026-05-06 21:34 52.30574 21.17408 11081 ft 355 kts 89°
2026-05-06 21:34 52.30753 21.21418 11782 ft 360 kts 89°
2026-05-06 21:34 52.30935 21.25526 12518 ft 364 kts 89°
2026-05-06 21:34 52.31115 21.29679 13247 ft 369 kts 89°
2026-05-06 21:35 52.31617 21.33828 13901 ft 378 kts 71°
2026-05-06 21:35 52.32935 21.37588 14514 ft 386 kts 50°
2026-05-06 21:35 52.34892 21.40619 15142 ft 389 kts 40°
2026-05-06 21:35 52.36950 21.43531 15816 ft 392 kts 40°
2026-05-06 21:36 52.39020 21.46456 16465 ft 395 kts 40°
2026-05-06 21:36 52.41112 21.49418 17116 ft 399 kts 40°
2026-05-06 21:36 52.43219 21.52413 17755 ft 402 kts 40°
2026-05-06 21:36 52.45335 21.55437 18332 ft 406 kts 41°
2026-05-06 21:37 52.47474 21.58506 18884 ft 410 kts 41°
2026-05-06 21:37 52.49626 21.61602 19428 ft 413 kts 41°
2026-05-06 21:37 52.51799 21.64730 19970 ft 417 kts 41°
2026-05-06 21:37 52.53989 21.67888 20496 ft 421 kts 41°
2026-05-06 21:38 52.56205 21.71087 21008 ft 425 kts 41°
2026-05-06 21:38 52.58406 21.74263 21501 ft 428 kts 41°
2026-05-06 21:38 52.60654 21.77508 22001 ft 432 kts 41°
2026-05-06 21:38 52.62919 21.80784 22495 ft 435 kts 41°
2026-05-06 21:39 52.65204 21.84094 22987 ft 439 kts 41°
2026-05-06 21:39 52.67505 21.87432 23471 ft 443 kts 41°
2026-05-06 21:39 52.69821 21.90794 23878 ft 446 kts 41°
2026-05-06 21:39 52.72158 21.94191 24299 ft 449 kts 41°
2026-05-06 21:40 52.74502 21.97609 24708 ft 452 kts 41°
2026-05-06 21:40 52.76864 22.01060 24939 ft 454 kts 41°
2026-05-06 21:40 52.79232 22.04523 24995 ft 454 kts 41°
2026-05-06 21:40 52.81601 22.07989 24998 ft 454 kts 41°
2026-05-06 21:41 52.83962 22.11447 24994 ft 454 kts 41°
2026-05-06 21:41 52.86324 22.14914 24992 ft 454 kts 41°
2026-05-06 21:41 52.88689 22.18392 24993 ft 454 kts 41°
2026-05-06 21:41 52.91051 22.21871 24992 ft 454 kts 41°
2026-05-06 21:42 52.93415 22.25360 24992 ft 454 kts 41°
2026-05-06 21:42 52.95774 22.28848 24994 ft 454 kts 41°
2026-05-06 21:42 52.98134 22.32347 24997 ft 454 kts 41°
2026-05-06 21:42 53.00488 22.35838 24996 ft 454 kts 41°
2026-05-06 21:43 53.02847 22.39335 24994 ft 454 kts 41°
2026-05-06 21:43 53.05211 22.42840 24994 ft 455 kts 41°
2026-05-06 21:43 53.07569 22.46341 24996 ft 455 kts 41°
2026-05-06 21:43 53.09896 22.49803 24996 ft 455 kts 41°
2026-05-06 21:44 53.12252 22.53321 24994 ft 455 kts 41°
2026-05-06 21:44 53.14610 22.56851 24991 ft 456 kts 41°
2026-05-06 21:44 53.16964 22.60388 24993 ft 456 kts 41°
2026-05-06 21:44 53.19321 22.63931 24991 ft 456 kts 41°
2026-05-06 21:45 53.21677 22.67471 24995 ft 456 kts 41°
2026-05-06 21:45 53.24038 22.71018 24993 ft 457 kts 41°
2026-05-06 21:45 53.26397 22.74569 24994 ft 457 kts 41°
2026-05-06 21:45 53.28761 22.78133 24992 ft 457 kts 41°
2026-05-06 21:46 53.31123 22.81708 24994 ft 457 kts 41°
2026-05-06 21:46 53.33484 22.85286 24995 ft 457 kts 41°
2026-05-06 21:46 53.35842 22.88859 24994 ft 457 kts 41°
2026-05-06 21:46 53.38203 22.92438 24996 ft 458 kts 41°
2026-05-06 21:47 53.40560 22.96022 25001 ft 458 kts 41°
2026-05-06 21:47 53.42915 22.99610 24997 ft 458 kts 41°
2026-05-06 21:47 53.45269 23.03206 25001 ft 458 kts 41°
2026-05-06 21:47 53.47621 23.06808 25001 ft 458 kts 41°
2026-05-06 21:48 53.49939 23.10363 25001 ft 458 kts 41°
2026-05-06 21:48 53.52296 23.13977 25001 ft 458 kts 41°
2026-05-06 21:48 53.54646 23.17583 25000 ft 457 kts 41°
2026-05-06 21:48 53.56997 23.21198 25002 ft 457 kts 41°
2026-05-06 21:49 53.59343 23.24811 25004 ft 457 kts 41°
2026-05-06 21:49 53.61685 23.28429 25004 ft 457 kts 41°
2026-05-06 21:49 53.64030 23.32056 25007 ft 457 kts 41°
2026-05-06 21:49 53.66373 23.35679 25006 ft 457 kts 41°
2026-05-06 21:50 53.68713 23.39303 25008 ft 457 kts 41°
2026-05-06 21:50 53.71058 23.42940 25008 ft 457 kts 41°
2026-05-06 21:50 53.73396 23.46577 25006 ft 457 kts 41°
2026-05-06 21:50 53.75703 23.50175 25007 ft 457 kts 41°
2026-05-06 21:51 53.78041 23.53828 25010 ft 457 kts 41°
2026-05-06 21:51 53.80379 23.57483 25011 ft 457 kts 41°
2026-05-06 21:51 53.82715 23.61138 24997 ft 458 kts 41°
2026-05-06 21:51 53.85053 23.64799 24819 ft 456 kts 41°
2026-05-06 21:52 53.87389 23.68454 24813 ft 456 kts 41°
2026-05-06 21:52 53.89716 23.72105 24819 ft 456 kts 42°
2026-05-06 21:52 53.92024 23.75740 24807 ft 446 kts 42°
2026-05-06 21:52 53.94262 23.79276 24688 ft 433 kts 42°
2026-05-06 21:53 53.96445 23.82731 24406 ft 427 kts 42°
2026-05-06 21:53 53.98606 23.86159 24043 ft 423 kts 42°
2026-05-06 21:53 54.00719 23.89516 23656 ft 420 kts 42°
2026-05-06 21:53 54.02846 23.92895 23236 ft 417 kts 42°
2026-05-06 21:54 54.04960 23.96253 22788 ft 414 kts 42°
2026-05-06 21:54 54.07059 23.99589 22325 ft 411 kts 42°
2026-05-06 21:54 54.09139 24.02902 21883 ft 408 kts 42°
2026-05-06 21:54 54.11202 24.06190 21438 ft 405 kts 42°
2026-05-06 21:55 54.13251 24.09466 20995 ft 402 kts 42°
2026-05-06 21:55 54.15279 24.12718 20559 ft 399 kts 42°
2026-05-06 21:55 54.17296 24.15950 20127 ft 396 kts 42°
2026-05-06 21:55 54.19301 24.19160 19721 ft 394 kts 42°
2026-05-06 21:56 54.21289 24.22356 19311 ft 391 kts 42°
2026-05-06 21:56 54.23260 24.25538 18905 ft 388 kts 42°
2026-05-06 21:56 54.25214 24.28698 18502 ft 386 kts 42°
2026-05-06 21:56 54.27172 24.31808 18104 ft 382 kts 38°
2026-05-06 21:57 54.29353 24.34354 17655 ft 376 kts 25°
2026-05-06 21:57 54.31712 24.36215 17218 ft 372 kts 20°
2026-05-06 21:57 54.34078 24.37989 16779 ft 370 kts 20°
2026-05-06 21:57 54.36426 24.39762 16349 ft 367 kts 20°
2026-05-06 21:58 54.38763 24.41537 15920 ft 365 kts 20°
2026-05-06 21:58 54.41053 24.43277 15532 ft 363 kts 20°
2026-05-06 21:58 54.43359 24.45033 15135 ft 361 kts 20°
2026-05-06 21:58 54.45648 24.46779 14746 ft 359 kts 21°
2026-05-06 21:59 54.47930 24.48521 14364 ft 357 kts 21°
2026-05-06 21:59 54.50143 24.50422 14084 ft 354 kts 31°
2026-05-06 21:59 54.51973 24.53171 13952 ft 347 kts 49°
2026-05-06 21:59 54.53268 24.56619 13707 ft 342 kts 67°
2026-05-06 22:00 54.53981 24.60488 13355 ft 337 kts 78°
2026-05-06 22:00 54.54534 24.64408 13004 ft 336 kts 78°
2026-05-06 22:00 54.55086 24.68312 12661 ft 334 kts 78°
2026-05-06 22:00 54.55637 24.72196 12325 ft 332 kts 78°
2026-05-06 22:01 54.56185 24.76053 12001 ft 330 kts 78°
2026-05-06 22:01 54.56724 24.79840 11680 ft 328 kts 78°
2026-05-06 22:01 54.57152 24.83762 11088 ft 332 kts 92°
2026-05-06 22:01 54.56772 24.87641 10496 ft 329 kts 117°
2026-05-06 22:02 54.55602 24.90978 9915 ft 326 kts 132°
2026-05-06 22:02 54.54192 24.94075 9307 ft 331 kts 133°
2026-05-06 22:02 54.52739 24.97172 8675 ft 334 kts 134°
2026-05-06 22:02 54.51261 25.00287 8064 ft 337 kts 134°
2026-05-06 22:03 54.49785 25.03369 7460 ft 339 kts 134°
2026-05-06 22:03 54.48270 25.06503 6873 ft 341 kts 134°
2026-05-06 22:03 54.46744 25.09637 6281 ft 342 kts 134°
2026-05-06 22:03 54.45214 25.12756 5869 ft 337 kts 133°
2026-05-06 22:04 54.43989 25.16094 5734 ft 330 kts 111°
2026-05-06 22:04 54.43792 25.19940 5616 ft 320 kts 80°
2026-05-06 22:04 54.44677 25.23250 5519 ft 292 kts 48°
2026-05-06 22:04 54.46187 25.25043 5150 ft 242 kts 14°
2026-05-06 22:05 54.47715 25.25180 4684 ft 205 kts 351°
2026-05-06 22:05 54.49049 25.25063 4442 ft 178 kts 351°
2026-05-06 22:05 54.50195 25.24997 4226 ft 156 kts 351°
2026-05-06 22:05 54.51258 25.24954 3841 ft 151 kts 351°
2026-05-06 22:06 54.52305 25.24916 3446 ft 149 kts 352°
2026-05-06 22:06 54.53337 25.24881 3045 ft 148 kts 352°
2026-05-06 22:06 54.54358 25.24849 2636 ft 147 kts 352°
2026-05-06 22:06 54.55388 25.24816 2237 ft 148 kts 353°
2026-05-06 22:07 54.56408 25.24783 1845 ft 148 kts 355°
2026-05-06 22:07 54.57429 25.24752 1816 ft 149 kts 355°
2026-05-06 22:07 54.58464 25.25140 1589 ft 154 kts 22°
2026-05-06 22:07 54.59448 25.25822 1298 ft 150 kts 20°
2026-05-06 22:08 54.60403 25.26461 1043 ft 145 kts 22°
2026-05-06 22:08 54.61323 25.27093 841 ft 140 kts 23°
2026-05-06 22:08 54.62218 25.27740 674 ft 139 kts 23°
2026-05-06 22:08 54.63069 25.28346 605 ft 119 kts 23°
2026-05-06 22:09 54.63679 25.28764 629 ft 69 kts 22°
2026-05-06 22:09 54.63967 25.28966 644 ft 24 kts 22°
2026-05-06 22:09 54.64114 25.29074 650 ft 22 kts 24°
2026-05-06 22:09 54.64257 25.29165 654 ft 22 kts 19°
2026-05-06 22:10 54.64390 25.29253 659 ft 20 kts 22°
2026-05-06 22:10 54.64479 25.29219 655 ft 12 kts 297°
2026-05-06 22:10 54.64522 25.29059 657 ft 17 kts 295°
2026-05-06 22:10 54.64560 25.28924 657 ft 13 kts 288°
2026-05-06 22:11 54.64554 25.28796 656 ft 12 kts 261°
2026-05-06 22:11 54.64546 25.28711 655 ft 4 kts 260°
2026-05-06 22:11 54.64558 25.28637 653 ft 7 kts 342°
2026-05-06 22:11 54.64586 25.28639 653 ft 6 kts 353°
2026-05-06 22:12 54.64596 25.28635 653 ft 0 kts 349°